{"data":{"norad_id":68841,"epoch":"2026-05-25T00:07:26.617152Z","epoch_age_seconds":64668,"freshness":"FRESH","line1":"1 68841U 26094C   26145.00516918  .00054026  00000+0  98651-3 0  9994","line2":"2 68841  97.2847 159.5929 0001382 104.9569 255.1835 15.49238574  4487","mean_motion":15.49238574,"eccentricity":0.0001382,"inclination_deg":97.2847,"raan_deg":159.5929,"arg_perigee_deg":104.9569,"mean_anomaly_deg":255.1835,"bstar":0.00098651,"rev_number":448,"period_min":92.948886257205,"perigee_km":418.01290688663,"apogee_km":419.89162235937,"semimajor_km":6797.089264623,"source":"CELESTRAK","updated_at":"2026-05-25T13:38:22.045797Z"}}